TimeCDT,TemperatureF,Dew PointF,Humidity,Sea Level PressureIn,VisibilityMPH,Wind Direction,Wind SpeedMPH,Gust SpeedMPH,PrecipitationIn,Events,Conditions,WindDirDegrees,DateUTC
12:53 AM,73.0,70.0,90,29.92,10.0,Calm,Calm,-,N/A,,Mostly Cloudy,0,2013-06-11 05:53:00
1:53 AM,71.1,69.1,93,29.92,10.0,Calm,Calm,-,N/A,,Clear,0,2013-06-11 06:53:00
2:53 AM,70.0,69.1,97,29.93,5.0,Calm,Calm,-,N/A,,Clear,0,2013-06-11 07:53:00
3:53 AM,69.1,68.0,96,29.93,5.0,Calm,Calm,-,N/A,,Clear,0,2013-06-11 08:53:00
4:53 AM,69.1,66.9,93,29.95,9.0,SSW,4.6,-,N/A,,Clear,200,2013-06-11 09:53:00
5:53 AM,69.1,68.0,96,29.96,10.0,SSW,3.5,-,N/A,,Clear,210,2013-06-11 10:53:00
6:53 AM,73.9,70.0,87,29.98,10.0,SW,5.8,-,N/A,,Clear,220,2013-06-11 11:53:00
7:53 AM,78.1,71.1,79,30.01,10.0,WSW,6.9,-,N/A,,Clear,250,2013-06-11 12:53:00
8:53 AM,82.0,72.0,71,30.00,10.0,WSW,9.2,-,N/A,,Clear,240,2013-06-11 13:53:00
9:40 AM,84.2,73.4,70,30.02,10.0,WSW,8.1,-,N/A,,Partly Cloudy,250,2013-06-11 14:40:00
9:53 AM,84.9,73.0,67,30.01,10.0,WSW,8.1,-,N/A,,Partly Cloudy,240,2013-06-11 14:53:00
10:53 AM,88.0,73.0,61,30.01,10.0,WSW,5.8,-,N/A,,Clear,240,2013-06-11 15:53:00
11:53 AM,90.0,73.0,57,30.01,10.0,WSW,8.1,-,N/A,,Clear,240,2013-06-11 16:53:00
12:53 PM,91.9,71.1,50,29.99,10.0,Variable,4.6,-,N/A,,Partly Cloudy,0,2013-06-11 17:53:00
1:53 PM,91.9,71.1,50,29.99,10.0,Variable,6.9,-,N/A,,Partly Cloudy,0,2013-06-11 18:53:00
2:53 PM,93.0,72.0,50,29.97,10.0,WSW,11.5,-,N/A,,Clear,240,2013-06-11 19:53:00
3:53 PM,93.0,71.1,49,29.96,10.0,WSW,10.4,16.1,N/A,,Partly Cloudy,250,2013-06-11 20:53:00
4:53 PM,93.9,70.0,46,29.96,10.0,West,9.2,-,N/A,,Partly Cloudy,270,2013-06-11 21:53:00
5:53 PM,91.0,71.1,52,29.95,10.0,WSW,6.9,-,N/A,,Clear,240,2013-06-11 22:53:00
6:53 PM,91.0,73.9,57,29.95,10.0,SSW,5.8,-,N/A,,Clear,210,2013-06-11 23:53:00
7:53 PM,86.0,75.0,70,29.95,10.0,South,5.8,-,N/A,,Clear,190,2013-06-12 00:53:00
8:53 PM,80.1,75.0,85,29.96,10.0,SSW,4.6,-,N/A,,Clear,200,2013-06-12 01:53:00
9:53 PM,79.0,73.9,84,29.97,10.0,SSW,8.1,-,N/A,,Clear,200,2013-06-12 02:53:00
10:53 PM,79.0,73.0,82,29.97,10.0,SSW,8.1,-,N/A,,Clear,210,2013-06-12 03:53:00
11:53 PM,79.0,73.0,82,29.97,10.0,SSW,6.9,-,N/A,,Clear,210,2013-06-12 04:53:00